Volver al catálogo

STARLINK-33807

ActivoComunicacionesVLEO
NORAD 63518·PAYLOAD·🇺🇸 United States

Lanzado Apr 7, 2025 desde Vandenberg Space Force Base

Loading…

Próximos Pases (próximas 24 horas)

TLE

ActualizadoSource: CelesTrak SupGP

Época: Sep 15, 2026, 02:07 UTC

1 63518C 25071AB  26258.08868056  .00063094  00000+0  18639-2 0  2580
2 63518  53.1593 335.1984 0001169  87.6160  47.0744 15.34363806    15

Sigue STARLINK-33807 en tiempo real con AllMySat

Download on the App Store